Location: Unspecified
(0.0000°N, 0.0000°E)
Time: 10:34:00
(UTC+00:00)

Vanguard 1 - Pass Details

Date: 13 December 2017
Orbit: 650 x 3833 km, 34.3° (Epoch: 22 June)

Event Time Altitude Azimuth Distance (km) Brightness Sun altitude
Rises 16:05:16 0° 326° (NW) 4,204 13.4 24.9°
Reaches altitude 10° 16:09:34 10° 344° (NNW) 2,753 12.4 23.9°
Maximum altitude 16:13:38 18° 26° (NNE) 1,883 11.2 23.0°
Drops below altitude 10° 16:16:55 10° 69° (ENE) 2,156 11.3 22.3°
Sets 16:19:43 0° 91° (E) 2,968 12.0 21.7°
